Year,Month,Day,Hour,Minute,Value (Times are PST for temperature in C)
2009,08,25,00,00,17.60
2009,08,25,00,01,17.60
2009,08,25,00,02,17.60
2009,08,25,00,03,17.60
2009,08,25,00,04,17.60
2009,08,25,00,05,17.60
2009,08,25,00,06,17.60
2009,08,25,00,07,17.60
2009,08,25,00,08,17.60
2009,08,25,00,09,17.50
2009,08,25,00,10,17.50
2009,08,25,00,11,17.50
2009,08,25,00,12,17.50
2009,08,25,00,13,17.50
2009,08,25,00,14,17.50
2009,08,25,00,15,17.50
2009,08,25,00,16,17.50
2009,08,25,00,17,17.50
2009,08,25,00,18,17.50
2009,08,25,00,19,17.50
2009,08,25,00,20,17.50
2009,08,25,00,21,17.50
2009,08,25,00,22,17.50
2009,08,25,00,23,17.50
2009,08,25,00,24,17.50
2009,08,25,00,25,17.60
2009,08,25,00,26,17.60
2009,08,25,00,27,17.60
2009,08,25,00,28,17.60
2009,08,25,00,29,17.60
2009,08,25,00,30,17.60
2009,08,25,00,31,17.60
2009,08,25,00,32,17.60
2009,08,25,00,33,17.60
2009,08,25,00,34,17.60
2009,08,25,00,35,17.60
2009,08,25,00,36,17.60
2009,08,25,00,37,17.60
2009,08,25,00,38,17.60
2009,08,25,00,39,17.60
2009,08,25,00,40,17.50
2009,08,25,00,41,17.50
2009,08,25,00,42,17.50
2009,08,25,00,43,17.40
2009,08,25,00,44,17.40
2009,08,25,00,45,17.30
2009,08,25,00,46,17.30
2009,08,25,00,47,17.20
2009,08,25,00,48,17.20
2009,08,25,00,49,17.10
2009,08,25,00,50,17.00
2009,08,25,00,51,16.90
2009,08,25,00,52,16.80
2009,08,25,00,53,16.80
2009,08,25,00,54,16.80
2009,08,25,00,55,16.70
2009,08,25,00,56,16.70
2009,08,25,00,57,16.70
2009,08,25,00,58,16.70
2009,08,25,00,59,16.70
2009,08,25,01,00,16.70
2009,08,25,01,01,16.70
2009,08,25,01,02,16.70
2009,08,25,01,03,16.60
2009,08,25,01,04,16.60
2009,08,25,01,05,16.60
2009,08,25,01,06,16.50
2009,08,25,01,07,16.50
2009,08,25,01,08,16.50
2009,08,25,01,09,16.50
2009,08,25,01,10,16.50
2009,08,25,01,11,16.40
2009,08,25,01,12,16.40
2009,08,25,01,13,16.40
2009,08,25,01,14,16.40
2009,08,25,01,15,16.40
2009,08,25,01,16,16.40
2009,08,25,01,17,16.30
2009,08,25,01,18,16.30
2009,08,25,01,19,16.30
2009,08,25,01,20,16.30
2009,08,25,01,21,16.30
2009,08,25,01,22,16.30
2009,08,25,01,23,16.20
2009,08,25,01,24,16.20
2009,08,25,01,25,16.10
2009,08,25,01,26,16.00
2009,08,25,01,27,16.00
2009,08,25,01,28,15.90
2009,08,25,01,29,15.90
2009,08,25,01,30,15.90
2009,08,25,01,31,16.00
2009,08,25,01,32,16.00
2009,08,25,01,33,16.00
2009,08,25,01,34,16.10
2009,08,25,01,35,16.10
2009,08,25,01,36,16.10
2009,08,25,01,37,16.10
2009,08,25,01,38,16.20
2009,08,25,01,39,16.20
2009,08,25,01,40,16.30
2009,08,25,01,41,16.30
2009,08,25,01,42,16.30
2009,08,25,01,43,16.30
2009,08,25,01,44,16.30
2009,08,25,01,45,16.30
2009,08,25,01,46,16.30
2009,08,25,01,47,16.40
2009,08,25,01,48,16.40
2009,08,25,01,49,16.40
2009,08,25,01,50,16.40
2009,08,25,01,51,16.40
2009,08,25,01,52,16.50
2009,08,25,01,53,16.50
2009,08,25,01,54,16.50
2009,08,25,01,55,16.40
2009,08,25,01,56,16.40
2009,08,25,01,57,16.40
2009,08,25,01,58,16.30
2009,08,25,01,59,16.30
2009,08,25,02,00,16.30
2009,08,25,02,01,16.20
2009,08,25,02,02,16.20
2009,08,25,02,03,16.10
2009,08,25,02,04,16.10
2009,08,25,02,05,16.00
2009,08,25,02,06,16.00
2009,08,25,02,07,15.90
2009,08,25,02,08,15.90
2009,08,25,02,09,15.80
2009,08,25,02,10,15.80
2009,08,25,02,11,15.70
2009,08,25,02,12,15.60
2009,08,25,02,13,15.60
2009,08,25,02,14,15.50
2009,08,25,02,15,15.40
2009,08,25,02,16,15.40
2009,08,25,02,17,15.40
2009,08,25,02,18,15.30
2009,08,25,02,19,15.30
2009,08,25,02,20,15.30
2009,08,25,02,21,15.20
2009,08,25,02,22,15.20
2009,08,25,02,23,15.20
2009,08,25,02,24,15.20
2009,08,25,02,25,15.20
2009,08,25,02,26,15.10
2009,08,25,02,27,15.10
2009,08,25,02,28,15.10
2009,08,25,02,29,15.00
2009,08,25,02,30,15.00
2009,08,25,02,31,15.00
2009,08,25,02,32,15.00
2009,08,25,02,33,15.00
2009,08,25,02,34,15.00
2009,08,25,02,35,15.00
2009,08,25,02,36,15.00
2009,08,25,02,37,15.00
2009,08,25,02,38,15.00
2009,08,25,02,39,15.00
2009,08,25,02,40,15.00
2009,08,25,02,41,15.00
2009,08,25,02,42,15.00
2009,08,25,02,43,15.00
2009,08,25,02,44,15.00
2009,08,25,02,45,15.00
2009,08,25,02,46,14.90
2009,08,25,02,47,14.80
2009,08,25,02,48,14.70
2009,08,25,02,49,14.60
2009,08,25,02,50,14.60
2009,08,25,02,51,14.50
2009,08,25,02,52,14.40
2009,08,25,02,53,14.30
2009,08,25,02,54,14.20
2009,08,25,02,55,14.20
2009,08,25,02,56,14.10
2009,08,25,02,57,14.10
2009,08,25,02,58,14.00
2009,08,25,02,59,14.00
2009,08,25,03,00,13.90
2009,08,25,03,01,13.90
2009,08,25,03,02,13.90
2009,08,25,03,03,13.80
2009,08,25,03,04,13.80
2009,08,25,03,05,13.80
2009,08,25,03,06,13.70
2009,08,25,03,07,13.70
2009,08,25,03,08,13.70
2009,08,25,03,09,13.60
2009,08,25,03,10,13.60
2009,08,25,03,11,13.60
2009,08,25,03,12,13.60
2009,08,25,03,13,13.60
2009,08,25,03,14,13.60
2009,08,25,03,15,13.60
2009,08,25,03,16,13.60
2009,08,25,03,17,13.60
2009,08,25,03,18,13.60
2009,08,25,03,19,13.60
2009,08,25,03,20,13.60
2009,08,25,03,21,13.60
2009,08,25,03,22,13.60
2009,08,25,03,23,13.60
2009,08,25,03,24,13.60
2009,08,25,03,25,13.60
2009,08,25,03,26,13.60
2009,08,25,03,27,13.60
2009,08,25,03,28,13.50
2009,08,25,03,29,13.50
2009,08,25,03,30,13.50
2009,08,25,03,31,13.50
2009,08,25,03,32,13.50
2009,08,25,03,33,13.40
2009,08,25,03,34,13.40
2009,08,25,03,35,13.40
2009,08,25,03,36,13.40
2009,08,25,03,37,13.50
2009,08,25,03,38,13.50
2009,08,25,03,39,13.50
2009,08,25,03,40,13.50
2009,08,25,03,41,13.50
2009,08,25,03,42,13.50
2009,08,25,03,43,13.50
2009,08,25,03,44,13.50
2009,08,25,03,45,13.50
2009,08,25,03,46,13.50
2009,08,25,03,47,13.50
2009,08,25,03,48,13.50
2009,08,25,03,49,13.50
2009,08,25,03,50,13.50
2009,08,25,03,51,13.50
2009,08,25,03,52,13.50
2009,08,25,03,53,13.50
2009,08,25,03,54,13.50
2009,08,25,03,55,13.50
2009,08,25,03,56,13.50
2009,08,25,03,57,13.50
2009,08,25,03,58,13.50
2009,08,25,03,59,13.50
2009,08,25,04,00,13.60
2009,08,25,04,01,13.60
2009,08,25,04,02,13.70
2009,08,25,04,03,13.70
2009,08,25,04,04,13.70
2009,08,25,04,05,13.80
2009,08,25,04,06,13.80
2009,08,25,04,07,13.80
2009,08,25,04,08,13.90
2009,08,25,04,09,13.90
2009,08,25,04,10,14.00
2009,08,25,04,11,14.00
2009,08,25,04,12,14.10
2009,08,25,04,13,14.10
2009,08,25,04,14,14.10
2009,08,25,04,15,14.20
2009,08,25,04,16,14.20
2009,08,25,04,17,14.20
2009,08,25,04,18,14.20
2009,08,25,04,19,14.30
2009,08,25,04,20,14.30
2009,08,25,04,21,14.30
2009,08,25,04,22,14.30
2009,08,25,04,23,14.30
2009,08,25,04,24,14.30
2009,08,25,04,25,14.30
2009,08,25,04,26,14.20
2009,08,25,04,27,14.20
2009,08,25,04,28,14.20
2009,08,25,04,29,14.10
2009,08,25,04,30,14.10
2009,08,25,04,31,14.10
2009,08,25,04,32,14.00
2009,08,25,04,33,14.00
2009,08,25,04,34,14.00
2009,08,25,04,35,14.00
2009,08,25,04,36,13.90
2009,08,25,04,37,13.90
2009,08,25,04,38,13.90
2009,08,25,04,39,13.90
2009,08,25,04,40,13.80
2009,08,25,04,41,13.80
2009,08,25,04,42,13.80
2009,08,25,04,43,13.80
2009,08,25,04,44,13.80
2009,08,25,04,45,13.80
2009,08,25,04,46,13.80
2009,08,25,04,47,13.80
2009,08,25,04,48,13.80
2009,08,25,04,49,13.80
2009,08,25,04,50,13.80
2009,08,25,04,51,13.80
2009,08,25,04,52,13.80
2009,08,25,04,53,13.80
2009,08,25,04,54,13.70
2009,08,25,04,55,13.70
2009,08,25,04,56,13.70
2009,08,25,04,57,13.60
2009,08,25,04,58,13.60
2009,08,25,04,59,13.60
2009,08,25,05,00,13.50
2009,08,25,05,01,13.50
2009,08,25,05,02,13.50
2009,08,25,05,03,13.40
2009,08,25,05,04,13.40
2009,08,25,05,05,13.40
2009,08,25,05,06,13.40
2009,08,25,05,07,13.40
2009,08,25,05,08,13.40
2009,08,25,05,09,13.40
2009,08,25,05,10,13.40
2009,08,25,05,11,13.40
2009,08,25,05,12,13.40
2009,08,25,05,13,13.40
2009,08,25,05,14,13.40
2009,08,25,05,15,13.40
2009,08,25,05,16,13.30
2009,08,25,05,17,13.30
2009,08,25,05,18,13.30
2009,08,25,05,19,13.30
2009,08,25,05,20,13.30
2009,08,25,05,21,13.30
2009,08,25,05,22,13.30
2009,08,25,05,23,13.30
2009,08,25,05,24,13.30
2009,08,25,05,25,13.30
2009,08,25,05,26,13.30
2009,08,25,05,27,13.30
2009,08,25,05,28,13.40
2009,08,25,05,29,13.40
2009,08,25,05,30,13.40
2009,08,25,05,31,13.40
2009,08,25,05,32,13.40
2009,08,25,05,33,13.40
2009,08,25,05,34,13.40
2009,08,25,05,35,13.40
2009,08,25,05,36,13.40
2009,08,25,05,37,13.40
2009,08,25,05,38,13.40
2009,08,25,05,39,13.40
2009,08,25,05,40,13.40
2009,08,25,05,41,13.40
2009,08,25,05,42,13.40
2009,08,25,05,43,13.40
2009,08,25,05,44,13.40
2009,08,25,05,45,13.30
2009,08,25,05,46,13.30
2009,08,25,05,47,13.30
2009,08,25,05,48,13.30
2009,08,25,05,49,13.20
2009,08,25,05,50,13.20
2009,08,25,05,51,13.20
2009,08,25,05,52,13.20
2009,08,25,05,53,13.10
2009,08,25,05,54,13.10
2009,08,25,05,55,13.00
2009,08,25,05,56,12.90
2009,08,25,05,57,12.80
2009,08,25,05,58,12.80
2009,08,25,05,59,12.70
2009,08,25,06,00,12.60
2009,08,25,06,01,12.60
2009,08,25,06,02,12.50
2009,08,25,06,03,12.50
2009,08,25,06,04,12.50
2009,08,25,06,05,12.40
2009,08,25,06,06,12.40
2009,08,25,06,07,12.40
2009,08,25,06,08,12.30
2009,08,25,06,09,12.30
2009,08,25,06,10,12.30
2009,08,25,06,11,12.30
2009,08,25,06,12,12.30
2009,08,25,06,13,12.30
2009,08,25,06,14,12.30
2009,08,25,06,15,12.20
2009,08,25,06,16,12.20
2009,08,25,06,17,12.20
2009,08,25,06,18,12.20
2009,08,25,06,19,12.20
2009,08,25,06,20,12.20
2009,08,25,06,21,12.20
2009,08,25,06,22,12.20
2009,08,25,06,23,12.20
2009,08,25,06,24,12.20
2009,08,25,06,25,12.20
2009,08,25,06,26,12.10
2009,08,25,06,27,12.10
2009,08,25,06,28,12.10
2009,08,25,06,29,12.10
2009,08,25,06,30,12.10
2009,08,25,06,31,12.10
2009,08,25,06,32,12.10
2009,08,25,06,33,12.10
2009,08,25,06,34,12.10
2009,08,25,06,35,12.10
2009,08,25,06,36,12.10
2009,08,25,06,37,12.10
2009,08,25,06,38,12.10
2009,08,25,06,39,12.00
2009,08,25,06,40,12.00
2009,08,25,06,41,12.00
2009,08,25,06,42,12.00
2009,08,25,06,43,12.00
2009,08,25,06,44,12.00
2009,08,25,06,45,12.00
2009,08,25,06,46,12.00
2009,08,25,06,47,12.00
2009,08,25,06,48,12.00
2009,08,25,06,49,12.00
2009,08,25,06,50,12.00
2009,08,25,06,51,12.00
2009,08,25,06,52,12.00
2009,08,25,06,53,12.00
2009,08,25,06,54,12.00
2009,08,25,06,55,12.00
2009,08,25,06,56,12.00
2009,08,25,06,57,12.00
2009,08,25,06,58,12.00
2009,08,25,06,59,12.00
2009,08,25,07,00,12.00
2009,08,25,07,01,12.00
2009,08,25,07,02,12.00
2009,08,25,07,03,12.10
2009,08,25,07,04,12.10
2009,08,25,07,05,12.10
2009,08,25,07,06,12.10
2009,08,25,07,07,12.10
2009,08,25,07,08,12.10
2009,08,25,07,09,12.10
2009,08,25,07,10,12.10
2009,08,25,07,11,12.10
2009,08,25,07,12,12.10
2009,08,25,07,13,12.20
2009,08,25,07,14,12.20
2009,08,25,07,15,12.20
2009,08,25,07,16,12.20
2009,08,25,07,17,12.20
2009,08,25,07,18,12.20
2009,08,25,07,19,12.20
2009,08,25,07,20,12.30
2009,08,25,07,21,12.30
2009,08,25,07,22,12.30
2009,08,25,07,23,12.30
2009,08,25,07,24,12.30
2009,08,25,07,25,12.30
2009,08,25,07,26,12.40
2009,08,25,07,27,12.40
2009,08,25,07,28,12.40
2009,08,25,07,29,12.40
2009,08,25,07,30,12.40
2009,08,25,07,31,12.40
2009,08,25,07,32,12.40
2009,08,25,07,33,12.40
2009,08,25,07,34,12.40
2009,08,25,07,35,12.40
2009,08,25,07,36,12.40
2009,08,25,07,37,12.40
2009,08,25,07,38,12.50
2009,08,25,07,39,12.50
2009,08,25,07,40,12.50
2009,08,25,07,41,12.50
2009,08,25,07,42,12.60
2009,08,25,07,43,12.60
2009,08,25,07,44,12.60
2009,08,25,07,45,12.60
2009,08,25,07,46,12.70
2009,08,25,07,47,12.70
2009,08,25,07,48,12.80
2009,08,25,07,49,12.80
2009,08,25,07,50,12.90
2009,08,25,07,51,12.90
2009,08,25,07,52,13.00
2009,08,25,07,53,13.00
2009,08,25,07,54,13.10
2009,08,25,07,55,13.20
2009,08,25,07,56,13.20
2009,08,25,07,57,13.30
2009,08,25,07,58,13.30
2009,08,25,07,59,13.30
2009,08,25,08,00,13.30
2009,08,25,08,01,13.40
2009,08,25,08,02,13.40
2009,08,25,08,03,13.40
2009,08,25,08,04,13.40
2009,08,25,08,05,13.40
2009,08,25,08,06,13.40
2009,08,25,08,07,13.50
2009,08,25,08,08,13.50
2009,08,25,08,09,13.60
2009,08,25,08,10,13.60
2009,08,25,08,11,13.60
2009,08,25,08,12,13.60
2009,08,25,08,13,13.60
2009,08,25,08,14,13.60
2009,08,25,08,15,13.60
2009,08,25,08,16,13.60
2009,08,25,08,17,13.60
2009,08,25,08,18,13.60
2009,08,25,08,19,13.50
2009,08,25,08,20,13.50
2009,08,25,08,21,13.50
2009,08,25,08,22,13.40
2009,08,25,08,23,13.40
2009,08,25,08,24,13.40
2009,08,25,08,25,13.40
2009,08,25,08,26,13.30
2009,08,25,08,27,13.30
2009,08,25,08,28,13.30
2009,08,25,08,29,13.30
2009,08,25,08,30,13.30
2009,08,25,08,31,13.30
2009,08,25,08,32,13.20
2009,08,25,08,33,13.20
2009,08,25,08,34,13.20
2009,08,25,08,35,13.20
2009,08,25,08,36,13.20
2009,08,25,08,37,13.20
2009,08,25,08,38,13.30
2009,08,25,08,39,13.30
2009,08,25,08,40,13.30
2009,08,25,08,41,13.30
2009,08,25,08,42,13.30
2009,08,25,08,43,13.40
2009,08,25,08,44,13.40
2009,08,25,08,45,13.40
2009,08,25,08,46,13.50
2009,08,25,08,47,13.50
2009,08,25,08,48,13.60
2009,08,25,08,49,13.70
2009,08,25,08,50,13.80
2009,08,25,08,51,13.90
2009,08,25,08,52,14.00
2009,08,25,08,53,14.20
2009,08,25,08,54,14.30
2009,08,25,08,55,14.40
2009,08,25,08,56,14.50
2009,08,25,08,57,14.60
2009,08,25,08,58,14.70
2009,08,25,08,59,14.70
2009,08,25,09,00,14.80
2009,08,25,09,01,14.80
2009,08,25,09,02,14.90
2009,08,25,09,03,15.00
2009,08,25,09,04,15.00
2009,08,25,09,05,15.00
2009,08,25,09,06,15.00
2009,08,25,09,07,15.00
2009,08,25,09,08,15.00
2009,08,25,09,09,15.00
2009,08,25,09,10,15.00
2009,08,25,09,11,15.00
2009,08,25,09,12,15.00
2009,08,25,09,13,15.00
2009,08,25,09,14,15.00
2009,08,25,09,15,15.00
2009,08,25,09,16,15.00
2009,08,25,09,17,15.00
2009,08,25,09,18,15.00
2009,08,25,09,19,15.00
2009,08,25,09,20,15.00
2009,08,25,09,21,15.00
2009,08,25,09,22,15.00
2009,08,25,09,23,15.00
2009,08,25,09,24,15.00
2009,08,25,09,25,15.00
2009,08,25,09,26,15.00
2009,08,25,09,27,15.00
2009,08,25,09,28,15.00
2009,08,25,09,29,15.00
2009,08,25,09,30,15.00
2009,08,25,09,31,15.00
2009,08,25,09,32,15.00
2009,08,25,09,33,15.00
2009,08,25,09,34,15.00
2009,08,25,09,35,15.10
2009,08,25,09,36,15.20
2009,08,25,09,37,15.20
2009,08,25,09,38,15.30
2009,08,25,09,39,15.30
2009,08,25,09,40,15.40
2009,08,25,09,41,15.40
2009,08,25,09,42,15.50
2009,08,25,09,43,15.60
2009,08,25,09,44,15.70
2009,08,25,09,45,15.70
2009,08,25,09,46,15.70
2009,08,25,09,47,15.70
2009,08,25,09,48,15.70
2009,08,25,09,49,15.80
2009,08,25,09,50,15.80
2009,08,25,09,51,15.80
2009,08,25,09,52,15.80
2009,08,25,09,53,15.80
2009,08,25,09,54,15.80
2009,08,25,09,55,15.80
2009,08,25,09,56,15.90
2009,08,25,09,57,15.90
2009,08,25,09,58,15.90
2009,08,25,09,59,15.90
2009,08,25,10,00,15.80
2009,08,25,10,01,15.80
2009,08,25,10,02,15.70
2009,08,25,10,03,15.70
2009,08,25,10,04,15.70
2009,08,25,10,05,15.70
2009,08,25,10,06,15.70
2009,08,25,10,07,15.80
2009,08,25,10,08,15.70
2009,08,25,10,09,15.70
2009,08,25,10,10,15.70
2009,08,25,10,11,15.70
2009,08,25,10,12,15.70
2009,08,25,10,13,15.70
2009,08,25,10,14,15.70
2009,08,25,10,15,15.70
2009,08,25,10,16,15.70
2009,08,25,10,17,15.70
2009,08,25,10,18,15.70
2009,08,25,10,19,15.70
2009,08,25,10,20,15.70
2009,08,25,10,21,15.70
2009,08,25,10,22,15.80
2009,08,25,10,23,15.80
2009,08,25,10,24,16.00
2009,08,25,10,25,16.00
2009,08,25,10,26,16.10
2009,08,25,10,27,16.20
2009,08,25,10,28,16.20
2009,08,25,10,29,16.20
2009,08,25,10,30,16.20
2009,08,25,10,31,16.10
2009,08,25,10,32,16.10
2009,08,25,10,33,16.10
2009,08,25,10,34,16.10
2009,08,25,10,35,16.10
2009,08,25,10,36,16.10
2009,08,25,10,37,16.20
2009,08,25,10,38,16.20
2009,08,25,10,39,16.20
2009,08,25,10,40,16.20
2009,08,25,10,41,16.20
2009,08,25,10,42,16.20
2009,08,25,10,43,16.20
2009,08,25,10,44,16.20
2009,08,25,10,45,16.10
2009,08,25,10,46,16.10
2009,08,25,10,47,16.10
2009,08,25,10,48,16.20
2009,08,25,10,49,16.20
2009,08,25,10,50,16.20
2009,08,25,10,51,16.20
2009,08,25,10,52,16.20
2009,08,25,10,53,16.30
2009,08,25,10,54,16.30
2009,08,25,10,55,16.40
2009,08,25,10,56,16.40
2009,08,25,10,57,16.50
2009,08,25,10,58,16.60
2009,08,25,10,59,16.70
2009,08,25,11,00,16.80
2009,08,25,11,01,16.90
2009,08,25,11,02,17.10
2009,08,25,11,03,17.30
2009,08,25,11,04,17.40
2009,08,25,11,05,17.60
2009,08,25,11,06,17.70
2009,08,25,11,07,17.80
2009,08,25,11,08,17.80
2009,08,25,11,09,17.80
2009,08,25,11,10,17.80
2009,08,25,11,11,17.80
2009,08,25,11,12,17.80
2009,08,25,11,13,17.80
2009,08,25,11,14,17.80
2009,08,25,11,15,17.70
2009,08,25,11,16,17.80
2009,08,25,11,17,17.80
2009,08,25,11,18,17.90
2009,08,25,11,19,18.00
2009,08,25,11,20,18.20
2009,08,25,11,21,18.40
2009,08,25,11,22,18.50
2009,08,25,11,23,18.60
2009,08,25,11,24,18.60
2009,08,25,11,25,18.60
2009,08,25,11,26,18.70
2009,08,25,11,27,18.80
2009,08,25,11,28,18.80
2009,08,25,11,29,18.90
2009,08,25,11,30,19.00
2009,08,25,11,31,19.00
2009,08,25,11,32,19.10
2009,08,25,11,33,19.30
2009,08,25,11,34,19.30
2009,08,25,11,35,19.40
2009,08,25,11,36,19.30
2009,08,25,11,37,19.30
2009,08,25,11,38,19.20
2009,08,25,11,39,19.10
2009,08,25,11,40,19.00
2009,08,25,11,41,19.00
2009,08,25,11,42,19.00
2009,08,25,11,43,19.00
2009,08,25,11,44,19.10
2009,08,25,11,45,19.20
2009,08,25,11,46,19.30
2009,08,25,11,47,19.30
2009,08,25,11,48,19.40
2009,08,25,11,49,19.60
2009,08,25,11,50,19.70
2009,08,25,11,51,19.70
2009,08,25,11,52,19.60
2009,08,25,11,53,19.50
2009,08,25,11,54,19.40
2009,08,25,11,55,19.40
2009,08,25,11,56,19.30
2009,08,25,11,57,19.30
2009,08,25,11,58,19.30
2009,08,25,11,59,19.40
2009,08,25,12,00,19.60
2009,08,25,12,01,19.70
2009,08,25,12,02,19.70
2009,08,25,12,03,19.70
2009,08,25,12,04,19.70
2009,08,25,12,05,19.60
2009,08,25,12,06,19.50
2009,08,25,12,07,19.50
2009,08,25,12,08,19.40
2009,08,25,12,09,19.30
2009,08,25,12,10,19.30
2009,08,25,12,11,19.30
2009,08,25,12,12,19.30
2009,08,25,12,13,19.40
2009,08,25,12,14,19.40
2009,08,25,12,15,19.50
2009,08,25,12,16,19.50
2009,08,25,12,17,19.50
2009,08,25,12,18,19.50
2009,08,25,12,19,19.50
2009,08,25,12,20,19.60
2009,08,25,12,21,19.60
2009,08,25,12,22,19.60
2009,08,25,12,23,19.50
2009,08,25,12,24,19.40
2009,08,25,12,25,19.40
2009,08,25,12,26,19.30
2009,08,25,12,27,19.30
2009,08,25,12,28,19.30
2009,08,25,12,29,19.30
2009,08,25,12,30,19.30
2009,08,25,12,31,19.30
2009,08,25,12,32,19.30
2009,08,25,12,33,19.30
2009,08,25,12,34,19.30
2009,08,25,12,35,19.30
2009,08,25,12,36,19.40
2009,08,25,12,37,19.40
2009,08,25,12,38,19.40
2009,08,25,12,39,19.40
2009,08,25,12,40,19.30
2009,08,25,12,41,19.20
2009,08,25,12,42,19.20
2009,08,25,12,43,19.10
2009,08,25,12,44,19.10
2009,08,25,12,45,19.10
2009,08,25,12,46,19.10
2009,08,25,12,47,19.10
2009,08,25,12,48,19.30
2009,08,25,12,49,19.30
2009,08,25,12,50,19.40
2009,08,25,12,51,19.50
2009,08,25,12,52,19.60
2009,08,25,12,53,19.70
2009,08,25,12,54,19.70
2009,08,25,12,55,19.70
2009,08,25,12,56,19.70
2009,08,25,12,57,19.70
2009,08,25,12,58,19.50
2009,08,25,12,59,19.40
2009,08,25,13,00,19.30
2009,08,25,13,01,19.30
2009,08,25,13,02,19.30
2009,08,25,13,03,19.30
2009,08,25,13,04,19.30
2009,08,25,13,05,19.40
2009,08,25,13,06,19.60
2009,08,25,13,07,19.70
2009,08,25,13,08,19.80
2009,08,25,13,09,19.80
2009,08,25,13,10,19.90
2009,08,25,13,11,19.90
2009,08,25,13,12,20.00
2009,08,25,13,13,20.00
2009,08,25,13,14,20.10
2009,08,25,13,15,20.10
2009,08,25,13,16,20.20
2009,08,25,13,17,20.20
2009,08,25,13,18,20.10
2009,08,25,13,19,20.20
2009,08,25,13,20,20.20
2009,08,25,13,21,20.30
2009,08,25,13,22,20.40
2009,08,25,13,23,20.30
2009,08,25,13,24,20.20
2009,08,25,13,25,20.10
2009,08,25,13,26,20.10
2009,08,25,13,27,20.10
2009,08,25,13,28,20.10
2009,08,25,13,29,20.10
2009,08,25,13,30,20.10
2009,08,25,13,31,20.20
2009,08,25,13,32,20.30
2009,08,25,13,33,20.30
2009,08,25,13,34,20.40
2009,08,25,13,35,20.30
2009,08,25,13,36,20.30
2009,08,25,13,37,20.30
2009,08,25,13,38,20.40
2009,08,25,13,39,20.40
2009,08,25,13,40,20.40
2009,08,25,13,41,20.40
2009,08,25,13,42,20.50
2009,08,25,13,43,20.60
2009,08,25,13,44,20.70
2009,08,25,13,45,20.90
2009,08,25,13,46,21.00
2009,08,25,13,47,21.10
2009,08,25,13,48,21.20
2009,08,25,13,49,21.10
2009,08,25,13,50,21.10
2009,08,25,13,51,21.10
2009,08,25,13,52,21.10
2009,08,25,13,53,21.00
2009,08,25,13,54,21.00
2009,08,25,13,55,21.00
2009,08,25,13,56,21.00
2009,08,25,13,57,20.90
2009,08,25,13,58,20.80
2009,08,25,13,59,20.80
2009,08,25,14,00,20.80
2009,08,25,14,01,20.90
2009,08,25,14,02,20.90
2009,08,25,14,03,21.00
2009,08,25,14,04,21.10
2009,08,25,14,05,21.20
2009,08,25,14,06,21.20
2009,08,25,14,07,21.20
2009,08,25,14,08,21.20
2009,08,25,14,09,21.30
2009,08,25,14,10,21.30
2009,08,25,14,11,21.30
2009,08,25,14,12,21.30
2009,08,25,14,13,21.40
2009,08,25,14,14,21.40
2009,08,25,14,15,21.40
2009,08,25,14,16,21.40
2009,08,25,14,17,21.40
2009,08,25,14,18,21.40
2009,08,25,14,19,21.40
2009,08,25,14,20,21.40
2009,08,25,14,21,21.40
2009,08,25,14,22,21.40
2009,08,25,14,23,21.40
2009,08,25,14,24,21.40
2009,08,25,14,25,21.40
2009,08,25,14,26,21.40
2009,08,25,14,27,21.40
2009,08,25,14,28,21.30
2009,08,25,14,29,21.30
2009,08,25,14,30,21.30
2009,08,25,14,31,21.30
2009,08,25,14,32,21.30
2009,08,25,14,33,21.30
2009,08,25,14,34,21.30
2009,08,25,14,35,21.10
2009,08,25,14,36,21.00
2009,08,25,14,37,20.80
2009,08,25,14,38,20.60
2009,08,25,14,39,20.50
2009,08,25,14,40,20.30
2009,08,25,14,41,20.10
2009,08,25,14,42,19.80
2009,08,25,14,43,19.60
2009,08,25,14,44,19.40
2009,08,25,14,45,19.30
2009,08,25,14,46,19.10
2009,08,25,14,47,19.00
2009,08,25,14,48,18.90
2009,08,25,14,49,18.80
2009,08,25,14,50,18.80
2009,08,25,14,51,18.70
2009,08,25,14,52,18.60
2009,08,25,14,53,18.50
2009,08,25,14,54,18.40
2009,08,25,14,55,18.30
2009,08,25,14,56,18.20
2009,08,25,14,57,18.20
2009,08,25,14,58,18.10
2009,08,25,14,59,18.10
2009,08,25,15,00,18.00
2009,08,25,15,01,17.90
2009,08,25,15,02,17.80
2009,08,25,15,03,17.80
2009,08,25,15,04,17.80
2009,08,25,15,05,17.80
2009,08,25,15,06,17.70
2009,08,25,15,07,17.70
2009,08,25,15,08,17.70
2009,08,25,15,09,17.70
2009,08,25,15,10,17.70
2009,08,25,15,11,17.70
2009,08,25,15,12,17.70
2009,08,25,15,13,17.70
2009,08,25,15,14,17.70
2009,08,25,15,15,17.70
2009,08,25,15,16,17.70
2009,08,25,15,17,17.70
2009,08,25,15,18,17.70
2009,08,25,15,19,17.70
2009,08,25,15,20,17.70
2009,08,25,15,21,17.70
2009,08,25,15,22,17.80
2009,08,25,15,23,17.80
2009,08,25,15,24,17.80
2009,08,25,15,25,17.80
2009,08,25,15,26,17.80
2009,08,25,15,27,17.80
2009,08,25,15,28,17.80
2009,08,25,15,29,17.90
2009,08,25,15,30,17.90
2009,08,25,15,31,18.00
2009,08,25,15,32,18.10
2009,08,25,15,33,18.20
2009,08,25,15,34,18.30
2009,08,25,15,35,18.50
2009,08,25,15,36,18.60
2009,08,25,15,37,18.70
2009,08,25,15,38,18.80
2009,08,25,15,39,18.90
2009,08,25,15,40,19.00
2009,08,25,15,41,19.10
2009,08,25,15,42,19.10
2009,08,25,15,43,19.10
2009,08,25,15,44,19.10
2009,08,25,15,45,19.10
2009,08,25,15,46,19.20
2009,08,25,15,47,19.30
2009,08,25,15,48,19.40
2009,08,25,15,49,19.50
2009,08,25,15,50,19.50
2009,08,25,15,51,19.60
2009,08,25,15,52,19.60
2009,08,25,15,53,19.70
2009,08,25,15,54,19.70
2009,08,25,15,55,19.60
2009,08,25,15,56,19.60
2009,08,25,15,57,19.50
2009,08,25,15,58,19.40
2009,08,25,15,59,19.40
2009,08,25,16,00,19.30
2009,08,25,16,01,19.20
2009,08,25,16,02,19.20
2009,08,25,16,03,19.20
2009,08,25,16,04,19.30
2009,08,25,16,05,19.30
2009,08,25,16,06,19.40
2009,08,25,16,07,19.40
2009,08,25,16,08,19.50
2009,08,25,16,09,19.60
2009,08,25,16,10,19.60
2009,08,25,16,11,19.80
2009,08,25,16,12,19.80
2009,08,25,16,13,19.90
2009,08,25,16,14,20.00
2009,08,25,16,15,20.00
2009,08,25,16,16,20.00
2009,08,25,16,17,19.90
2009,08,25,16,18,19.90
2009,08,25,16,19,19.90
2009,08,25,16,20,19.90
2009,08,25,16,21,19.90
2009,08,25,16,22,19.90
2009,08,25,16,23,19.90
2009,08,25,16,24,19.90
2009,08,25,16,25,19.90
2009,08,25,16,26,19.90
2009,08,25,16,27,20.00
2009,08,25,16,28,20.10
2009,08,25,16,29,20.10
2009,08,25,16,30,20.10
2009,08,25,16,31,20.10
2009,08,25,16,32,20.00
2009,08,25,16,33,20.00
2009,08,25,16,34,19.90
2009,08,25,16,35,20.00
2009,08,25,16,36,20.00
2009,08,25,16,37,20.10
2009,08,25,16,38,20.10
2009,08,25,16,39,20.10
2009,08,25,16,40,20.00
2009,08,25,16,41,20.00
2009,08,25,16,42,20.00
2009,08,25,16,43,20.10
2009,08,25,16,44,20.00
2009,08,25,16,45,20.00
2009,08,25,16,46,19.90
2009,08,25,16,47,19.80
2009,08,25,16,48,19.80
2009,08,25,16,49,19.70
2009,08,25,16,50,19.70
2009,08,25,16,51,19.80
2009,08,25,16,52,19.80
2009,08,25,16,53,19.80
2009,08,25,16,54,19.80
2009,08,25,16,55,19.80
2009,08,25,16,56,19.80
2009,08,25,16,57,19.80
2009,08,25,16,58,19.70
2009,08,25,16,59,19.60
2009,08,25,17,00,19.40
2009,08,25,17,01,19.30
2009,08,25,17,02,19.10
2009,08,25,17,03,19.00
2009,08,25,17,04,18.90
2009,08,25,17,05,18.80
2009,08,25,17,06,18.80
2009,08,25,17,07,18.70
2009,08,25,17,08,18.70
2009,08,25,17,09,18.70
2009,08,25,17,10,18.70
2009,08,25,17,11,18.80
2009,08,25,17,12,18.80
2009,08,25,17,13,18.90
2009,08,25,17,14,19.10
2009,08,25,17,15,19.20
2009,08,25,17,16,19.20
2009,08,25,17,17,19.30
2009,08,25,17,18,19.40
2009,08,25,17,19,19.40